Content
SEND FEEDBACK

Daily
Averages
Monthly
Summary
Mexico

SAN MARTINIANO, QUINTANA ROO


Home > North America > Mexico > Quintana Roo
Elevation: 49 feet     Latitude: 20 47N     Longitude: 087 16W

WEATHER
 
SELECT A DAY
Number of Records: 196,766;   Date Range: 2/21/06 - 9/16/14
 
SHARE

PRINT THIS DATA

[ ← Previous Day ]
WEATHER ALMANAC - FEBRUARY 6, 2013
[ Next Day → ]
[ °C ]   °F
Weather ElementAverageHighLow
Temperature69 °F78.8 °F (12:55 pm)57.2 °F (1:35 am)
Dewpoint54.9 °F60.8 °F (10:15 pm)51.8 °F (12:55 am)
Humidity62.9 %88 % (4:35 am)39 % (2:55 pm)
Barometer30.09 in30.14 in (9:15 am)30.06 in (2:35 am)
Wind Speed2 mph8.1 mph (12:55 pm)
Weather ElementAverage
Visibility10 mi
Wind DirectionENE (60 °)

Weather ElementTotal
Precipitation---
Cooling Degree Days3 (Base 65)
Growing Degree Days18 (Base 50)
Averaged from 68 records on February 6, 2013
WEATHER CONDITIONS BREAKOUT
WIND DIRECTION BREAKOUT
WEATHER BY HOUR - FEBRUARY 6, 2013
[ °C ]   °F
Local TimeTemperatureDewpointHumidityBarometerVisibilityWind DirectionWind SpeedGust SpeedPrecipitationEventsConditions
12:35 AM60.8 °F53.6 °F77 %30.08 in10.0 miCalmScattered Clouds
12:55 AM60.8 °F51.8 °F72 %30.08 in10.0 miESE (110°)3.5 mphScattered Clouds
1:15 AM59.0 °F51.8 °F77 %30.07 in10.0 miEast (100°)3.5 mphScattered Clouds
1:35 AM57.2 °F51.8 °F82 %30.07 in10.0 miCalmClear
2:15 AM59.0 °F51.8 °F77 %30.07 in10.0 miCalmScattered Clouds
2:35 AM60.8 °F51.8 °F72 %30.06 in10.0 miCalmScattered Clouds
2:55 AM59.0 °F51.8 °F77 %30.06 in10.0 miCalmMostly Cloudy
3:15 AM59.0 °F51.8 °F77 %30.07 in10.0 miCalmMostly Cloudy
3:35 AM59.0 °F51.8 °F77 %30.06 in10.0 miCalmMostly Cloudy
3:55 AM59.0 °F53.6 °F82 %30.07 in10.0 miCalmMostly Cloudy
4:15 AM59.0 °F51.8 °F77 %30.07 in10.0 miCalmMostly Cloudy
4:35 AM57.2 °F53.6 °F88 %30.07 in10.0 miCalmScattered Clouds
4:55 AM59.0 °F53.6 °F82 %30.07 in10.0 miCalmMostly Cloudy
5:15 AM59.0 °F53.6 °F82 %30.07 in10.0 miNE (40°)3.5 mphMostly Cloudy
5:35 AM59.0 °F53.6 °F82 %30.07 in10.0 miCalmMostly Cloudy
5:55 AM60.8 °F53.6 °F77 %30.08 in10.0 miCalmMostly Cloudy
6:15 AM62.6 °F51.8 °F68 %30.08 in10.0 miCalmMostly Cloudy
6:35 AM62.6 °F51.8 °F68 %30.09 in10.0 miCalmMostly Cloudy
6:55 AM60.8 °F53.6 °F77 %30.09 in10.0 miCalmScattered Clouds
7:15 AM59.0 °F53.6 °F82 %30.09 in10.0 miCalmScattered Clouds
7:35 AM59.0 °F53.6 °F82 %30.11 in10.0 miCalmScattered Clouds
7:55 AM60.8 °F53.6 °F77 %30.11 in10.0 miCalmScattered Clouds
8:15 AM60.8 °F55.4 °F82 %30.12 in10.0 miCalmScattered Clouds
8:35 AM62.6 °F55.4 °F77 %30.12 in10.0 miCalmMostly Cloudy
8:55 AM64.4 °F55.4 °F73 %30.13 in10.0 miEast (100°)3.5 mphOvercast
9:15 AM66.2 °F55.4 °F68 %30.14 in10.0 miCalmOvercast
9:35 AM68.0 °F55.4 °F64 %30.14 in10.0 miESE (120°)3.5 mphOvercast
9:55 AM69.8 °F53.6 °F56 %30.14 in10.0 miSE (140°)3.5 mphOvercast
10:15 AM71.6 °F53.6 °F53 %30.14 in10.0 miCalmOvercast
10:35 AM71.6 °F53.6 °F53 %30.14 in10.0 miSE (130°)4.6 mphOvercast
10:55 AM73.4 °F53.6 °F50 %30.14 in10.0 miSSE (160°)4.6 mphOvercast
11:35 AM75.2 °F53.6 °F47 %30.14 in10.0 miSouth (170°)3.5 mphOvercast
11:55 AM77.0 °F53.6 °F44 %30.13 in10.0 miSouth (190°)5.8 mphOvercast
12:15 PM77.0 °F53.6 °F44 %30.12 in10.0 miSSE (160°)3.5 mphOvercast
12:35 PM77.0 °F53.6 °F44 %30.12 in10.0 miSouth (190°)5.8 mphOvercast
12:55 PM78.8 °F53.6 °F42 %30.12 in10.0 miSouth (190°)8.1 mphOvercast
1:15 PM78.8 °F53.6 °F42 %30.10 in10.0 miSSW (200°)6.9 mphOvercast
1:35 PM78.8 °F53.6 °F42 %30.09 in10.0 miSSW (210°)3.5 mphOvercast
1:55 PM78.8 °F53.6 °F42 %30.08 in10.0 miSSW (210°)4.6 mphOvercast
2:15 PM78.8 °F53.6 °F42 %30.08 in10.0 miSouth (190°)3.5 mphOvercast
2:35 PM78.8 °F53.6 °F42 %30.08 in10.0 miCalmOvercast
2:55 PM78.8 °F51.8 °F39 %30.08 in10.0 miSouth (190°)5.8 mphOvercast
3:15 PM78.8 °F53.6 °F42 %30.07 in10.0 miCalmOvercast
3:35 PM78.8 °F51.8 °F39 %30.07 in10.0 miCalmOvercast
4:15 PM78.8 °F53.6 °F42 %30.07 in10.0 miCalmOvercast
4:35 PM78.8 °F53.6 °F42 %30.06 in10.0 miCalmOvercast
4:55 PM78.8 °F53.6 °F42 %30.06 in10.0 miSSE (150°)5.8 mphOvercast
5:15 PM78.8 °F53.6 °F42 %30.06 in10.0 miCalmScattered Clouds
5:35 PM77.0 °F55.4 °F47 %30.07 in10.0 miCalmMostly Cloudy
5:55 PM77.0 °F55.4 °F47 %30.07 in10.0 miCalmOvercast
6:15 PM77.0 °F57.2 °F50 %30.07 in10.0 miCalmOvercast
6:35 PM75.2 °F57.2 °F53 %30.07 in10.0 miCalmOvercast
6:55 PM73.4 °F59.0 °F61 %30.07 in10.0 miCalmOvercast
7:15 PM73.4 °F59.0 °F61 %30.07 in10.0 miCalmOvercast
7:35 PM73.4 °F57.2 °F57 %30.09 in10.0 miCalmOvercast
7:55 PM73.4 °F57.2 °F57 %30.09 in10.0 miCalmOvercast
8:15 PM73.4 °F57.2 °F57 %30.09 in10.0 miCalmMostly Cloudy
8:35 PM69.8 °F59.0 °F68 %30.10 in10.0 miEast (80°)3.5 mphMostly Cloudy
8:55 PM69.8 °F59.0 °F68 %30.10 in10.0 miCalmMostly Cloudy
9:15 PM69.8 °F59.0 °F68 %30.11 in10.0 miESE (110°)4.6 mphScattered Clouds
9:35 PM69.8 °F59.0 °F68 %30.11 in10.0 miSE (130°)4.6 mphScattered Clouds
9:55 PM69.8 °F59.0 °F68 %30.11 in10.0 miESE (120°)3.5 mphMostly Cloudy
10:15 PM69.8 °F60.8 °F73 %30.11 in10.0 miESE (120°)4.6 mphMostly Cloudy
10:35 PM69.8 °F60.8 °F73 %30.11 in10.0 miESE (110°)5.8 mphScattered Clouds
10:55 PM69.8 °F60.8 °F73 %30.11 in10.0 miESE (110°)5.8 mphScattered Clouds
11:15 PM69.8 °F60.8 °F73 %30.11 in10.0 miESE (110°)5.8 mphClear
11:35 PM69.8 °F60.8 °F73 %30.10 in10.0 miESE (120°)4.6 mphScattered Clouds
11:55 PM68.0 °F60.8 °F78 %30.10 in10.0 miESE (120°)6.9 mphScattered Clouds
Hourly data recorded from KPCM, located miles away from San Martiniano, Quintana Roo







STORIES FROM OUR PARTNERS